�������l�o���
Date,Time,MP-1(��Sv/h),MP-2(��Sv/h),MP-3(��Sv/h),MP-4(��Sv/h),MP-5(��Sv/h),MP-6(��Sv/h),MP-7(��Sv/h),����,����(m/s),���J
2021/05/21,00:00,0.171,0.155,0.240,0.231,0.233,0.135,0.086,�쓌,3.0,�L
2021/05/21,00:10,0.170,0.154,0.240,0.233,0.236,0.135,0.086,��,0.9,�L
2021/05/21,00:20,0.172,0.156,0.241,0.232,0.234,0.136,0.086,�쓌,3.1,�L
2021/05/21,00:30,0.170,0.155,0.241,0.233,0.237,0.135,0.087,���쓌,3.9,�L
2021/05/21,00:40,0.172,0.155,0.240,0.231,0.235,0.137,0.087,���쓌,5.4,�L
2021/05/21,00:50,0.171,0.156,0.241,0.234,0.236,0.136,0.088,���쓌,5.4,�L
2021/05/21,01:00,0.172,0.157,0.241,0.232,0.235,0.137,0.088,���쓌,4.9,�L
2021/05/21,01:10,0.170,0.158,0.240,0.234,0.237,0.137,0.089,���쓌,5.0,�L
2021/05/21,01:20,0.173,0.158,0.242,0.234,0.236,0.138,0.089,�쓌,5.1,�L
2021/05/21,01:30,0.172,0.158,0.240,0.235,0.239,0.138,0.090,���쓌,5.6,�L
2021/05/21,01:40,0.174,0.158,0.244,0.234,0.237,0.138,0.090,�쓌,7.5,�L
2021/05/21,01:50,0.172,0.157,0.241,0.234,0.238,0.139,0.090,�쓌,6.0,�L
2021/05/21,02:00,0.173,0.157,0.242,0.234,0.235,0.137,0.088,�쓌,4.6,�L
2021/05/21,02:10,0.171,0.158,0.240,0.232,0.238,0.138,0.089,�쓌,3.5,�L
2021/05/21,02:20,0.172,0.156,0.241,0.233,0.236,0.137,0.088,���쓌,2.7,�L
2021/05/21,02:30,0.170,0.157,0.241,0.231,0.236,0.135,0.088,�쓌,3.5,�L
2021/05/21,02:40,0.172,0.156,0.239,0.233,0.236,0.135,0.088,���쓌,2.6,�L
2021/05/21,02:50,0.169,0.155,0.240,0.231,0.236,0.136,0.087,��,2.5,�L
2021/05/21,03:00,0.171,0.156,0.238,0.233,0.234,0.135,0.087,��,1.8,�L
2021/05/21,03:10,0.169,0.154,0.240,0.230,0.236,0.133,0.086,�k��,2.1,�L
2021/05/21,03:20,0.169,0.155,0.238,0.231,0.234,0.133,0.086,�k��,1.7,�L
2021/05/21,03:30,0.169,0.153,0.239,0.229,0.234,0.132,0.085,�k�k��,2.8,�L
2021/05/21,03:40,0.168,0.154,0.237,0.231,0.232,0.133,0.085,�k�k��,2.4,�L
2021/05/21,03:50,0.168,0.153,0.238,0.230,0.235,0.132,0.084,�k�k��,2.8,�L
2021/05/21,04:00,0.167,0.153,0.237,0.230,0.232,0.132,0.085,�k,3.2,�L
2021/05/21,04:10,0.168,0.152,0.238,0.229,0.234,0.131,0.084,�k�k��,3.3,�L
2021/05/21,04:20,0.166,0.152,0.237,0.229,0.232,0.131,0.084,�k�k��,4.1,�L
2021/05/21,04:30,0.166,0.151,0.236,0.228,0.232,0.132,0.083,�k�k��,4.2,�L
2021/05/21,04:40,0.165,0.151,0.236,0.227,0.231,0.130,0.083,�k�k��,4.5,�L
2021/05/21,04:50,0.166,0.152,0.234,0.229,0.233,0.130,0.083,�k�k��,4.6,�L
2021/05/21,05:00,0.164,0.151,0.236,0.228,0.231,0.130,0.083,�k�k��,4.6,�L
2021/05/21,05:10,0.166,0.153,0.235,0.228,0.231,0.131,0.083,�k�k��,5.0,�L
2021/05/21,05:20,0.165,0.151,0.236,0.227,0.233,0.130,0.082,�k�k��,6.0,�L
2021/05/21,05:30,0.166,0.150,0.235,0.229,0.232,0.130,0.083,�k�k��,6.5,�L
2021/05/21,05:40,0.164,0.151,0.235,0.227,0.232,0.130,0.082,�k�k��,6.0,�L
2021/05/21,05:50,0.165,0.151,0.236,0.227,0.230,0.130,0.082,�k�k��,5.7,�L
2021/05/21,06:00,0.164,0.151,0.235,0.226,0.232,0.129,0.082,�k�k��,6.9,�L
2021/05/21,06:10,0.165,0.150,0.235,0.227,0.230,0.130,0.082,�k�k��,7.8,�L
2021/05/21,06:20,0.165,0.151,0.234,0.227,0.232,0.129,0.082,�k�k��,7.1,�L
2021/05/21,06:30,0.164,0.150,0.236,0.228,0.231,0.129,0.082,�k�k��,6.7,�L
2021/05/21,06:40,0.164,0.150,0.235,0.228,0.232,0.129,0.082,�k�k��,6.9,�L
2021/05/21,06:50,0.164,0.151,0.235,0.226,0.229,0.129,0.082,�k�k��,7.2,�L
2021/05/21,07:00,0.165,0.148,0.235,0.227,0.231,0.129,0.082,�k�k��,8.1,�L
2021/05/21,07:10,0.164,0.151,0.234,0.227,0.229,0.128,0.082,�k�k��,7.3,�L
2021/05/21,07:20,0.166,0.150,0.236,0.227,0.231,0.129,0.082,�k�k��,6.6,�L
2021/05/21,07:30,0.165,0.150,0.235,0.227,0.231,0.129,0.081,�k�k��,6.7,�L
2021/05/21,07:40,0.165,0.150,0.235,0.227,0.231,0.129,0.082,�k�k��,6.2,�L
2021/05/21,07:50,0.164,0.151,0.236,0.228,0.230,0.130,0.082,�k�k��,5.0,�L
2021/05/21,08:00,0.165,0.151,0.234,0.227,0.232,0.130,0.082,�k�k��,4.0,�L
2021/05/21,08:10,0.165,0.150,0.235,0.228,0.231,0.129,0.082,�k�k��,4.1,�L
2021/05/21,08:20,0.164,0.151,0.233,0.227,0.231,0.130,0.081,�k�k��,4.6,�L
2021/05/21,08:30,0.164,0.150,0.236,0.228,0.231,0.129,0.082,�k�k��,3.8,�L
2021/05/21,08:40,0.163,0.150,0.234,0.227,0.230,0.129,0.081,�k�k��,5.5,�L
2021/05/21,08:50,0.165,0.149,0.235,0.227,0.231,0.129,0.082,�k�k��,5.0,��
2021/05/21,09:00,0.164,0.149,0.233,0.226,0.231,0.129,0.081,�k�k��,4.3,�L
2021/05/21,09:10,0.164,0.150,0.233,0.228,0.229,0.128,0.081,�k��,4.0,�L
2021/05/21,09:20,0.163,0.149,0.236,0.226,0.229,0.128,0.080,�k�k��,4.4,�L
2021/05/21,09:30,0.164,0.148,0.233,0.227,0.230,0.127,0.081,�k��,3.9,�L
2021/05/21,09:40,0.163,0.149,0.233,0.225,0.229,0.128,0.080,�k�k��,5.3,�L
2021/05/21,09:50,0.165,0.149,0.234,0.226,0.230,0.128,0.081,�k�k��,4.1,�L
2021/05/21,10:00,0.163,0.148,0.235,0.226,0.231,0.129,0.081,�k��,4.9,�L
2021/05/21,10:10,0.164,0.150,0.233,0.225,0.230,0.128,0.082,�k��,1.5,�L
2021/05/21,10:20,0.163,0.149,0.234,0.226,0.231,0.129,0.082,���k��,2.3,�L
2021/05/21,10:30,0.164,0.150,0.233,0.226,0.229,0.128,0.083,��,1.3,�L
2021/05/21,10:40,0.163,0.149,0.232,0.225,0.230,0.128,0.082,��,3.2,�L
2021/05/21,10:50,0.164,0.149,0.232,0.224,0.228,0.128,0.081,��,4.0,�L
2021/05/21,11:00,0.162,0.149,0.230,0.221,0.228,0.128,0.081,��쐼,3.0,�L
2021/05/21,11:10,0.161,0.149,0.229,0.221,0.226,0.126,0.081,��쐼,3.1,�L
2021/05/21,11:20,0.160,0.147,0.227,0.220,0.227,0.126,0.081,��,2.7,�L
2021/05/21,11:30,0.160,0.147,0.228,0.218,0.227,0.126,0.082,��쐼,1.1,�L
2021/05/21,11:40,0.158,0.147,0.222,0.217,0.225,0.125,0.081,�쐼,5.9,�L
2021/05/21,11:50,0.157,0.148,0.224,0.217,0.225,0.125,0.081,��,3.5,�L
2021/05/21,12:00,0.158,0.149,0.226,0.221,0.228,0.125,0.082,��,5.1,�L
2021/05/21,12:10,0.159,0.150,0.230,0.221,0.229,0.126,0.082,��,4.3,�L
2021/05/21,12:20,0.160,0.149,0.228,0.222,0.228,0.126,0.082,��쓌,4.0,�L
2021/05/21,12:30,0.159,0.148,0.229,0.221,0.227,0.128,0.083,��,6.4,�L
2021/05/21,12:40,0.161,0.150,0.229,0.224,0.229,0.127,0.083,��쓌,5.6,�L
2021/05/21,12:50,0.160,0.149,0.231,0.223,0.227,0.127,0.082,��,4.0,��
2021/05/21,13:00,0.160,0.148,0.230,0.225,0.230,0.128,0.082,��,3.1,��
2021/05/21,13:10,0.160,0.149,0.232,0.223,0.227,0.127,0.082,�쓌,2.4,�L
2021/05/21,13:20,0.160,0.149,0.231,0.225,0.231,0.126,0.081,��쓌,2.1,�L
2021/05/21,13:30,0.160,0.148,0.232,0.223,0.226,0.127,0.081,-,CALM,��
2021/05/21,13:40,0.161,0.148,0.230,0.224,0.231,0.125,0.080,�쓌,0.6,��
2021/05/21,13:50,0.161,0.148,0.232,0.223,0.228,0.126,0.080,���쓌,0.8,��
2021/05/21,14:00,0.160,0.147,0.230,0.223,0.229,0.124,0.080,-,CALM,�L
2021/05/21,14:10,0.161,0.147,0.233,0.223,0.228,0.127,0.081,-,CALM,�L
2021/05/21,14:20,0.162,0.149,0.231,0.226,0.229,0.127,0.081,��,0.7,�L
2021/05/21,14:30,0.161,0.150,0.233,0.226,0.230,0.127,0.082,-,CALM,�L
2021/05/21,14:40,0.162,0.148,0.232,0.226,0.228,0.127,0.082,-,CALM,�L
2021/05/21,14:50,0.162,0.149,0.233,0.225,0.231,0.128,0.081,�k�k��,1.3,��
2021/05/21,15:00,0.162,0.150,0.232,0.226,0.228,0.127,0.082,�k��,0.6,�L
2021/05/21,15:10,0.163,0.150,0.233,0.225,0.231,0.127,0.082,�k,0.9,�L
2021/05/21,15:20,0.163,0.149,0.232,0.226,0.230,0.128,0.082,��,1.8,��
2021/05/21,15:30,0.163,0.149,0.232,0.224,0.231,0.127,0.081,�k��,1.0,��
2021/05/21,15:40,0.162,0.149,0.232,0.226,0.227,0.127,0.081,�k�k��,1.5,�L
2021/05/21,15:50,0.160,0.149,0.232,0.224,0.229,0.126,0.080,�k��,1.2,��
2021/05/21,16:00,0.162,0.148,0.233,0.225,0.229,0.127,0.080,�k�k��,1.4,��
2021/05/21,16:10,0.161,0.148,0.232,0.224,0.228,0.126,0.080,�k,2.9,��
2021/05/21,16:20,0.162,0.149,0.232,0.225,0.229,0.126,0.080,�k�k��,2.1,��
2021/05/21,16:30,0.161,0.147,0.231,0.224,0.228,0.125,0.079,�k,2.1,��
2021/05/21,16:40,0.161,0.148,0.233,0.224,0.228,0.126,0.079,�k�k��,3.1,�L
2021/05/21,16:50,0.161,0.147,0.231,0.222,0.228,0.126,0.080,�k�k��,2.5,��
2021/05/21,17:00,0.162,0.147,0.232,0.224,0.230,0.126,0.079,�k�k��,3.3,�L
2021/05/21,17:10,0.160,0.147,0.232,0.225,0.228,0.126,0.080,�k�k��,3.4,�L
2021/05/21,17:20,0.163,0.149,0.234,0.226,0.230,0.128,0.081,�k�k��,4.4,�L
2021/05/21,17:30,0.162,0.147,0.232,0.224,0.228,0.126,0.081,�k�k��,3.9,�L
2021/05/21,17:40,0.163,0.147,0.232,0.227,0.231,0.127,0.080,�k�k��,4.3,�L
2021/05/21,17:50,0.162,0.149,0.232,0.225,0.228,0.127,0.081,�k�k��,4.5,�L
2021/05/21,18:00,0.164,0.148,0.233,0.227,0.231,0.129,0.083,�k,4.4,�L
2021/05/21,18:10,0.164,0.151,0.234,0.226,0.230,0.130,0.083,�k,3.7,�L
2021/05/21,18:20,0.164,0.151,0.236,0.229,0.234,0.131,0.084,�k�k��,4.5,�L
2021/05/21,18:30,0.165,0.152,0.235,0.228,0.232,0.130,0.085,�k,4.6,�L
2021/05/21,18:40,0.165,0.151,0.235,0.230,0.233,0.131,0.084,�k�k��,3.3,�L
2021/05/21,18:50,0.165,0.152,0.237,0.228,0.232,0.132,0.085,�k�k��,3.1,�L
2021/05/21,19:00,0.167,0.153,0.236,0.229,0.235,0.132,0.087,�k,3.6,�L
2021/05/21,19:10,0.166,0.153,0.236,0.229,0.233,0.132,0.086,�k,3.5,�L
2021/05/21,19:20,0.164,0.155,0.237,0.229,0.235,0.133,0.087,�k,3.6,�L
2021/05/21,19:30,0.167,0.153,0.236,0.230,0.234,0.132,0.086,�k,4.1,�L
2021/05/21,19:40,0.166,0.153,0.237,0.228,0.234,0.132,0.086,�k,5.0,�L
2021/05/21,19:50,0.168,0.154,0.236,0.230,0.233,0.132,0.086,�k,4.9,�L
2021/05/21,20:00,0.165,0.152,0.236,0.227,0.232,0.132,0.086,�k�k��,5.1,�L
2021/05/21,20:10,0.165,0.153,0.235,0.230,0.234,0.132,0.085,�k�k��,4.6,�L
2021/05/21,20:20,0.165,0.152,0.235,0.226,0.231,0.131,0.085,�k�k��,5.0,�L
2021/05/21,20:30,0.164,0.152,0.235,0.227,0.234,0.130,0.085,�k�k��,5.0,�L
2021/05/21,20:40,0.164,0.152,0.235,0.227,0.231,0.133,0.085,�k�k��,4.8,�L
2021/05/21,20:50,0.164,0.153,0.237,0.230,0.234,0.131,0.086,�k,3.9,�L
2021/05/21,21:00,0.166,0.154,0.236,0.228,0.232,0.133,0.086,�k,3.5,�L
2021/05/21,21:10,0.165,0.153,0.237,0.230,0.236,0.132,0.086,�k,3.2,�L
2021/05/21,21:20,0.166,0.153,0.237,0.229,0.233,0.131,0.085,�k,4.1,�L
2021/05/21,21:30,0.166,0.153,0.236,0.229,0.235,0.132,0.085,�k�k��,4.7,�L
2021/05/21,21:40,0.165,0.151,0.236,0.229,0.233,0.131,0.085,�k�k��,4.6,�L
2021/05/21,21:50,0.164,0.151,0.235,0.227,0.233,0.131,0.084,�k�k��,4.1,��
2021/05/21,22:00,0.164,0.150,0.235,0.227,0.230,0.129,0.083,�k�k��,4.2,��
2021/05/21,22:10,0.162,0.150,0.232,0.225,0.232,0.127,0.083,�k�k��,4.9,��
2021/05/21,22:20,0.162,0.149,0.234,0.227,0.230,0.128,0.082,�k�k��,4.1,�L
2021/05/21,22:30,0.163,0.149,0.232,0.226,0.232,0.128,0.082,�k�k��,4.0,�L
2021/05/21,22:40,0.164,0.149,0.232,0.227,0.229,0.129,0.082,�k�k��,3.5,�L
2021/05/21,22:50,0.163,0.150,0.233,0.225,0.233,0.129,0.082,�k�k��,3.5,�L
2021/05/21,23:00,0.163,0.150,0.234,0.228,0.231,0.130,0.084,�k�k��,4.7,�L
2021/05/21,23:10,0.164,0.151,0.235,0.226,0.233,0.130,0.085,�k�k��,4.8,�L
2021/05/21,23:20,0.165,0.151,0.234,0.229,0.232,0.132,0.086,�k�k��,4.7,�L
2021/05/21,23:30,0.168,0.153,0.236,0.228,0.235,0.134,0.088,�k,4.8,�L
2021/05/21,23:40,0.169,0.157,0.236,0.231,0.236,0.138,0.090,�k,5.7,�L
2021/05/21,23:50,0.170,0.158,0.239,0.231,0.238,0.138,0.092,�k�k��,3.6,�L
